Weather in Andreyevka

Russia / Novosibirsk Oblast     53°50′29″N   77°26′45″E
temp.,
°C
wind,
m/s
gust,
m/s
humid.,
%
clouds,
%
prec.,
mm/h
press.,
hPa
HPBL,
m
27 november, sat
sat2701:00−16ssw4109655 0.0 1034164
04:00−13sw51295100 0.0 1034254
07:00−11ssw61293100 0.0 1034340
10:00−10ssw71392100 0.0 1034383
13:00−7sw8169097 0.0 1033580
16:00−6sw9168780 0.0 1032568
19:00−7sw9178978 0.0 1031505
22:00−7sw81789100 0.0 1031513
28 november, sun
sun2801:00−6sw8168997 0.0 1031519
04:00−6wsw81590100 0.0 1032459
07:00−6wsw71490100 0.0 1032401
10:00−7wsw6139185 0.0 1034353
13:00−7wsw6129064 0.0 1035338
16:00−7sw5109053 0.0 1035240
19:00−10sw499314 0.0 1037122
22:00−12sw37926 0.0 103795
29 november, mon
mon2901:00−13sw369270 0.0 103771
04:00−13ssw359135 0.0 103663
07:00−14ssw35899 0.0 103661
10:00−15ssw348726 0.0 103550
13:00−10s378254 0.0 1034132
16:00−10s3783100 0.0 103291
19:00−13s3786100 0.0 103166
22:00−11ssw3784100 0.0 103092
30 november, tue
tue3001:00−11ssw3681100 0.0 102983
04:00−12ssw3582100 0.0 102961
07:00−11ssw3778100 0.0 102890
10:00−14ssw2384100 0.0 102938
13:00−10sw367922 0.0 102992
16:00−10sw348249 0.0 102855
19:00−15ssw33885 0.0 102920
22:00−15s33875 0.0 103027
1 december, wed
wed101:00−15s34843 0.0 102944
04:00−17s22885 0.0 10299
07:00−15sse45825 0.0 102856
10:00−13s38865 0.0 102792
13:00−9s410814 0.0 1026168
16:00−7s38845 0.0 1024118
19:00−10s47855 0.0 102470
22:00−11s47835 0.0 102282